Location: Newark
(46.7636°N, 1.8358°W)
Time: 09:39:48
(UTC+00:00)

Vanguard 1 Rocket - Pass Details

Date: 24 October 2019
Orbit: 651 x 4225 km, 34.3° (Epoch: 11 November)

Event Time Altitude Azimuth Distance (km) Brightness Sun altitude
Rises 10:43:41 0° 243° (WSW) 5,196 11.4 29.6°
Reaches altitude 10° 10:46:33 10° 238° (WSW) 4,565 11.2 29.7°
Maximum altitude 10:59:58 53° 166° (SSE) 3,607 12.0 30.4°
Drops below altitude 10° 11:22:51 10° 99° (E) 7,361 12.3 31.1°
Sets 11:29:07 0° 96° (E) 8,473 12.5 31.3°
